Fortuna, CA

8:11 AM PDT on September 15, 2019 (GMT -0700)
Rohnerville

Weather History for KFOT - July, 2019

Change the Weather History Date:

Thursday, July 11, 2019

  Actual Average (KEKA) Record (KEKA)
Temperature  
Mean Temperature 63 °F -  
Max Temperature 69 °F 63 °F 74 °F (2005)
Min Temperature 57 °F 52 °F 46 °F (1950)
Degree Days  
Heating Degree Days 2    
Growing Degree Days 13 (Base 50)    
Moisture  
Dew Point 58 °F    
Average Humidity 91    
Maximum Humidity 100    
Minimum Humidity 73    
Precipitation  
Precipitation 0.00 in - - ()
Sea Level Pressure  
Sea Level Pressure 30.11 in    
Wind  
Wind Speed 5 mph (WNW)    
Max Wind Speed 20 mph    
Max Gust Speed 24 mph    
Visibility 6 miles    
Events      
Averages and records for this station are not official NWS values.
T = Trace of Precipitation, MM = Missing Value Source: NWS Daily Summary

Daily Weather History Graph

Daily Weather History Graph

Search for Another Location

Airport or City:

Astronomy

Jul. 11, 2019 Rise Set
Actual Time 5:55 AM PDT 8:48 PM PDT
Civil Twilight 5:23 AM PDT 9:20 PM PDT
Nautical Twilight 4:42 AM PDT 10:01 PM PDT
Astronomical Twilight 3:54 AM PDT 10:48 PM PDT
Moon 4:07 PM PDT (7/11) 2:09 AM PDT (7/11)
Length of Visible Light 15h 57m
Length of Day
14h 52m
Waxing Gibbous, 75% of the Moon is Illuminated
Jul 11
Waxing Gibbous
Jul 16
Full
Jul 24
Last Quarter
Jul 31
New
Aug 7
First Quarter

Hourly Weather History & Observations

Time (PDT) Temp. Dew Point Humidity Pressure Visibility Wind Dir Wind Speed Gust Speed Precip Events Conditions
12:10 AM 60.8 °F 57.2 °F 88% 30.13 in 10.0 mi SE 3.5 mph - N/A   Overcast
12:30 AM 62.6 °F 59.0 °F 88% 30.13 in 10.0 mi Calm Calm - N/A   Overcast
12:50 AM 60.8 °F 57.2 °F 88% 30.13 in 10.0 mi WNW 3.5 mph - N/A   Overcast
1:10 AM 59.0 °F 57.2 °F 94% 30.14 in 1.8 mi NW 6.9 mph - N/A   Overcast
1:30 AM 59.0 °F 57.2 °F 94% 30.13 in 4.0 mi NNW 5.8 mph - N/A   Overcast
1:50 AM 59.0 °F 57.2 °F 94% 30.13 in 9.0 mi NNW 3.5 mph - N/A   Overcast
2:10 AM 57.2 °F 57.2 °F 100% 30.13 in 5.0 mi Calm Calm - N/A   Overcast
2:30 AM 57.2 °F 57.2 °F 100% 30.12 in 0.5 mi Calm Calm - N/A   Overcast
2:50 AM 57.2 °F 57.2 °F 100% 30.12 in 1.8 mi Calm Calm - N/A   Mostly Cloudy
3:10 AM 57.2 °F 57.2 °F 100% 30.11 in 0.5 mi Calm Calm - N/A   Overcast
3:30 AM 57.2 °F 57.2 °F 100% 30.11 in 2.5 mi Calm Calm - N/A   Overcast
3:50 AM 57.2 °F 57.2 °F 100% 30.11 in 3.0 mi Calm Calm - N/A   Overcast
4:10 AM 57.2 °F 57.2 °F 100% 30.11 in 0.5 mi Calm Calm - N/A   Overcast
4:30 AM 57.2 °F 57.2 °F 100% 30.11 in 0.2 mi Calm Calm - N/A   Overcast
4:50 AM 57.2 °F 57.2 °F 100% 30.11 in 0.2 mi Calm Calm - N/A   Overcast
5:10 AM 57.2 °F 57.2 °F 100% 30.11 in 0.2 mi SSE 3.5 mph - N/A   Overcast
5:30 AM 57.2 °F 57.2 °F 100% 30.11 in 0.2 mi Calm Calm - N/A   Overcast
5:50 AM 57.2 °F 57.2 °F 100% 30.12 in 0.2 mi Calm Calm - N/A   Overcast
6:10 AM 57.2 °F 57.2 °F 100% 30.12 in 0.2 mi Calm Calm - N/A   Overcast
6:30 AM 57.2 °F 57.2 °F 100% 30.12 in 0.2 mi NNW 3.5 mph - N/A   Overcast
6:50 AM 57.2 °F 57.2 °F 100% 30.12 in 0.2 mi North 3.5 mph - N/A   Overcast
7:10 AM 57.2 °F 57.2 °F 100% 30.12 in 0.2 mi Calm Calm - N/A   Overcast
7:30 AM 57.2 °F 57.2 °F 100% 30.12 in 0.2 mi Calm Calm - N/A   Overcast
7:50 AM 57.2 °F 57.2 °F 100% 30.12 in 0.2 mi Calm Calm - N/A   Overcast
8:10 AM 59.0 °F 57.2 °F 94% 30.12 in 0.2 mi WNW 3.5 mph - N/A   Overcast
8:30 AM 59.0 °F 59.0 °F 100% 30.13 in 0.8 mi NW 3.5 mph - N/A   Overcast
8:50 AM 59.0 °F 59.0 °F 100% 30.13 in 10.0 mi NW 3.5 mph - N/A   Overcast
9:10 AM 59.0 °F 59.0 °F 100% 30.13 in 10.0 mi NNW 3.5 mph - N/A   Overcast
9:30 AM 60.8 °F 59.0 °F 94% 30.12 in 10.0 mi WNW 5.8 mph - N/A   Overcast
9:50 AM 62.6 °F 59.0 °F 88% 30.12 in 10.0 mi WNW 5.8 mph - N/A   Overcast
10:10 AM 62.6 °F 59.0 °F 88% 30.12 in 10.0 mi West 5.8 mph - N/A   Mostly Cloudy
10:30 AM 64.4 °F 59.0 °F 83% 30.12 in 10.0 mi WNW 5.8 mph - N/A   Mostly Cloudy
10:50 AM 64.4 °F 59.0 °F 83% 30.11 in 10.0 mi West 5.8 mph - N/A   Mostly Cloudy
11:10 AM 66.2 °F 59.0 °F 78% 30.11 in 10.0 mi West 6.9 mph - N/A   Overcast
11:30 AM 66.2 °F 59.0 °F 78% 30.12 in 10.0 mi West 10.4 mph - N/A   Overcast
11:50 AM 66.2 °F 60.8 °F 83% 30.12 in 10.0 mi WNW 11.5 mph 17.3 mph N/A   Overcast
12:10 PM 68.0 °F 59.0 °F 73% 30.12 in 10.0 mi WNW 12.7 mph - N/A   Mostly Cloudy
12:30 PM 68.0 °F 59.0 °F 73% 30.12 in 10.0 mi WNW 12.7 mph - N/A   Mostly Cloudy
12:50 PM 68.0 °F 59.0 °F 73% 30.12 in 10.0 mi WNW 12.7 mph - N/A   Mostly Cloudy
1:10 PM 68.0 °F 59.0 °F 73% 30.12 in 10.0 mi West 15.0 mph - N/A   Mostly Cloudy
1:30 PM 68.0 °F 59.0 °F 73% 30.12 in 10.0 mi West 15.0 mph - N/A   Mostly Cloudy
1:50 PM 68.0 °F 60.8 °F 78% 30.12 in 10.0 mi West 16.1 mph 20.7 mph N/A   Scattered Clouds
2:10 PM 68.0 °F 60.8 °F 78% 30.12 in 10.0 mi West 15.0 mph 19.6 mph N/A   Mostly Cloudy
2:30 PM 68.0 °F 60.8 °F 78% 30.12 in 10.0 mi West 13.8 mph 19.6 mph N/A   Scattered Clouds
2:50 PM 69.8 °F 60.8 °F 73% 30.11 in 10.0 mi West 16.1 mph 20.7 mph N/A   Partly Cloudy
3:10 PM 69.8 °F 60.8 °F 73% 30.11 in 10.0 mi West 16.1 mph 19.6 mph N/A   Partly Cloudy
3:30 PM 68.0 °F 60.8 °F 78% 30.11 in 10.0 mi West 16.1 mph - N/A   Clear
3:50 PM 68.0 °F 60.8 °F 78% 30.11 in 10.0 mi West 16.1 mph 23.0 mph N/A   Partly Cloudy
4:10 PM 68.0 °F 60.8 °F 78% 30.10 in 10.0 mi West 15.0 mph 21.9 mph N/A   Partly Cloudy
4:30 PM 66.2 °F 60.8 °F 83% 30.10 in 10.0 mi West 17.3 mph 23.0 mph N/A   Clear
4:50 PM 66.2 °F 59.0 °F 78% 30.10 in 10.0 mi West 17.3 mph 21.9 mph N/A   Partly Cloudy
5:10 PM 64.4 °F 59.0 °F 83% 30.10 in 10.0 mi West 17.3 mph 21.9 mph N/A   Mostly Cloudy
5:30 PM 64.4 °F 59.0 °F 83% 30.10 in 10.0 mi West 19.6 mph 24.2 mph N/A   Scattered Clouds
5:50 PM 62.6 °F 59.0 °F 88% 30.10 in 10.0 mi West 17.3 mph - N/A   Mostly Cloudy
6:10 PM 60.8 °F 57.2 °F 88% 30.10 in 10.0 mi West 15.0 mph 23.0 mph N/A   Overcast
6:30 PM 59.0 °F 57.2 °F 94% 30.10 in 5.0 mi West 15.0 mph - N/A   Overcast
7:10 PM 59.0 °F 57.2 °F 94% 30.10 in 9.0 mi West 12.7 mph - N/A   Overcast
7:30 PM 59.0 °F 57.2 °F 94% 30.10 in 6.0 mi West 12.7 mph - N/A   Overcast
7:50 PM 57.2 °F 57.2 °F 100% 30.11 in 0.2 mi West 9.2 mph - N/A   Overcast
8:10 PM 57.2 °F 57.2 °F 100% 30.10 in 0.2 mi West 10.4 mph - N/A   Overcast
8:30 PM 57.2 °F 57.2 °F 100% 30.10 in 3.0 mi West 9.2 mph - N/A   Overcast
8:50 PM 57.2 °F 57.2 °F 100% 30.10 in 2.5 mi West 9.2 mph - N/A   Overcast
9:10 PM 57.2 °F 57.2 °F 100% 30.11 in 0.5 mi West 6.9 mph - N/A   Overcast
9:30 PM 57.2 °F 57.2 °F 100% 30.11 in 2.0 mi West 5.8 mph - N/A   Overcast
10:10 PM 57.2 °F 57.2 °F 100% 30.11 in 0.5 mi West 4.6 mph - N/A   Overcast
10:30 PM 57.2 °F 57.2 °F 100% 30.11 in 0.5 mi West 4.6 mph - N/A   Overcast
10:50 PM 57.2 °F 57.2 °F 100% 30.10 in 0.2 mi Calm Calm - N/A   Overcast
11:10 PM 57.2 °F 57.2 °F 100% 30.10 in 0.5 mi West 3.5 mph - N/A   Overcast
11:30 PM 57.2 °F 57.2 °F 100% 30.10 in 0.2 mi WNW 4.6 mph - N/A   Overcast
11:50 PM 57.2 °F 57.2 °F 100% 30.09 in 0.2 mi WNW 5.8 mph - N/A   Overcast